• In United Kingdom
  • List of Countries
  • For 7 days
  • Water Temperature
  • Satellite Maps
  • Weather Map
  • Weather Widgets
  • user-avatar
    Login

    Hourly Weather Asadabad

    Today, 17 July, Tuesday

    Time Temperature Precipitation Wind Pressure Humidity
    00:00 +28°C° 2.5 mm 1 mps 653 mmHg 75%
    01:00 +27°C° 2.5 mm 1 mps 653 mmHg 76%
    02:00 +27°C° 2.5 mm 1 mps 652 mmHg 77%
    03:00 +27°C° 1.7 mm 1 mps 652 mmHg 77%
    04:00 +26°C° 1.7 mm 1 mps 652 mmHg 78%
    05:00 +26°C° 0 mm 1 mps 652 mmHg 77%
    06:00 +27°C° 0.7 mm 1 mps 653 mmHg 72%
    07:00 +28°C° 0.7 mm 1 mps 653 mmHg 68%
    08:00 +29°C° 0.7 mm 1 mps 653 mmHg 63%
    09:00 +30°C° 0.2 mm 2 mps 653 mmHg 60%
    10:00 +31°C° 0.2 mm 2 mps 653 mmHg 56%
    11:00 +33°C° 0 mm 3 mps 654 mmHg 51%
    12:00 +34°C° 0.5 mm 3 mps 654 mmHg 53%
    13:00 +34°C° 0.5 mm 4 mps 653 mmHg 54%
    14:00 +34°C° 0.5 mm 4 mps 653 mmHg 55%
    15:00 +33°C° 1.5 mm 4 mps 653 mmHg 56%
    16:00 +33°C° 1.5 mm 4 mps 653 mmHg 57%
    17:00 +33°C° 1.5 mm 3 mps 653 mmHg 58%
    18:00 +31°C° 2.7 mm 3 mps 653 mmHg 62%
    19:00 +30°C° 2.7 mm 2 mps 653 mmHg 65%
    20:00 +29°C° 2.7 mm 2 mps 653 mmHg 69%
    21:00 +29°C° 2.3 mm 2 mps 653 mmHg 71%
    22:00 +28°C° 2.3 mm 1 mps 653 mmHg 72%
    23:00 +28°C° 2.3 mm 1 mps 653 mmHg 74%

    Tomorrow, 18 July, Wednesday

    Time Temperature Precipitation Wind Pressure Humidity
    00:00 +27°C° 2.2 mm 1 mps 653 mmHg 75%
    01:00 +27°C° 2.2 mm 1 mps 653 mmHg 77%
    02:00 +27°C° 2.2 mm 1 mps 653 mmHg 78%
    03:00 +26°C° 1.7 mm 1 mps 653 mmHg 78%
    04:00 +26°C° 1.7 mm 1 mps 652 mmHg 79%
    05:00 +26°C° 1.7 mm 1 mps 652 mmHg 79%
    06:00 +27°C° 0.6 mm 1 mps 653 mmHg 73%
    07:00 +28°C° 0.6 mm 1 mps 653 mmHg 68%
    08:00 +29°C° 0.6 mm 1 mps 654 mmHg 62%
    09:00 +30°C° 0.2 mm 2 mps 654 mmHg 59%
    10:00 +31°C° 0.2 mm 2 mps 654 mmHg 56%
    11:00 +32°C° 0.2 mm 2 mps 654 mmHg 53%
    12:00 +33°C° 0 mm 3 mps 654 mmHg 51%
    13:00 +34°C° 0 mm 3 mps 653 mmHg 50%
    14:00 +35°C° 0 mm 4 mps 653 mmHg 49%
    15:00 +34°C° 0.4 mm 4 mps 653 mmHg 51%
    16:00 +34°C° 0.4 mm 3 mps 653 mmHg 53%
    17:00 +33°C° 0.4 mm 3 mps 653 mmHg 56%
    18:00 +33°C° 0.6 mm 3 mps 653 mmHg 60%
    19:00 +31°C° 0.6 mm 3 mps 653 mmHg 65%
    20:00 +30°C° 0.6 mm 2 mps 653 mmHg 69%
    21:00 +29°C° 2.2 mm 2 mps 653 mmHg 71%
    22:00 +28°C° 2.2 mm 1 mps 653 mmHg 73%
    23:00 +28°C° 2.2 mm 1 mps 653 mmHg 75%

    Day after tomorrow, 19 July, Thursday

    Time Temperature Precipitation Wind Pressure Humidity
    00:00 +27°C° 1.3 mm 1 mps 653 mmHg 75%
    01:00 +27°C° 1.3 mm 1 mps 653 mmHg 76%
    02:00 +27°C° 1.3 mm 1 mps 652 mmHg 76%
    03:00 +26°C° 0.7 mm 1 mps 652 mmHg 76%
    04:00 +24°C° 0.7 mm 0 mps 652 mmHg 77%
    05:00 +24°C° 0.7 mm 0 mps 652 mmHg 77%
    06:00 +27°C° 0.3 mm 1 mps 653 mmHg 70%
    07:00 +28°C° 0.3 mm 1 mps 653 mmHg 64%
    08:00 +29°C° 0.3 mm 1 mps 653 mmHg 58%
    09:00 +30°C° 0.1 mm 2 mps 653 mmHg 54%
    10:00 +32°C° 0.1 mm 2 mps 654 mmHg 51%
    11:00 +34°C° 0.1 mm 2 mps 654 mmHg 47%
    12:00 +35°C° 0 mm 3 mps 654 mmHg 45%
    13:00 +35°C° 0 mm 3 mps 653 mmHg 44%
    14:00 +36°C° 0 mm 3 mps 653 mmHg 42%
    15:00 +36°C° 0.1 mm 3 mps 653 mmHg 43%
    16:00 +36°C° 0.1 mm 3 mps 653 mmHg 44%
    17:00 +35°C° 0.1 mm 4 mps 653 mmHg 45%
    18:00 +34°C° 0.2 mm 3 mps 653 mmHg 50%
    19:00 +32°C° 0.2 mm 2 mps 653 mmHg 54%
    20:00 +31°C° 0.2 mm 2 mps 653 mmHg 59%
    21:00 +30°C° 1.6 mm 2 mps 653 mmHg 62%
    22:00 +29°C° 1.6 mm 1 mps 653 mmHg 64%
    23:00 +29°C° 1.6 mm 1 mps 653 mmHg 67%

    20 July, Friday

    Time Temperature Precipitation Wind Pressure Humidity
    00:00 +28°C° 1.2 mm 1 mps 653 mmHg 68%
    01:00 +28°C° 1.2 mm 1 mps 653 mmHg 70%
    02:00 +25°C° 1.2 mm 0 mps 652 mmHg 71%
    03:00 +25°C° 0.3 mm 0 mps 652 mmHg 71%
    04:00 +25°C° 0.3 mm 0 mps 652 mmHg 71%
    05:00 +26°C° 0.3 mm 1 mps 652 mmHg 71%
    06:00 +28°C° 0.2 mm 1 mps 652 mmHg 66%
    07:00 +29°C° 0.2 mm 1 mps 652 mmHg 61%
    08:00 +30°C° 0.2 mm 1 mps 653 mmHg 56%
    09:00 +31°C° 0 mm 1 mps 653 mmHg 52%
    10:00 +32°C° 0 mm 2 mps 653 mmHg 48%
    11:00 +34°C° 0 mm 2 mps 653 mmHg 45%
    12:00 +35°C° 0 mm 3 mps 653 mmHg 42%
    13:00 +36°C° 0 mm 3 mps 653 mmHg 40%
    14:00 +37°C° 0 mm 3 mps 652 mmHg 38%
    15:00 +37°C° 0.1 mm 3 mps 652 mmHg 38%
    16:00 +37°C° 0.1 mm 4 mps 652 mmHg 38%
    17:00 +36°C° 0.1 mm 4 mps 652 mmHg 38%
    18:00 +35°C° 0.1 mm 3 mps 652 mmHg 44%
    19:00 +33°C° 0.1 mm 3 mps 652 mmHg 49%
    20:00 +31°C° 0.1 mm 2 mps 652 mmHg 54%
    21:00 +30°C° 0.6 mm 2 mps 652 mmHg 57%
    22:00 +30°C° 0.6 mm 1 mps 652 mmHg 60%
    23:00 +29°C° 0.6 mm 1 mps 652 mmHg 63%

    21 July, Saturday

    Time Temperature Precipitation Wind Pressure Humidity
    00:00 +29°C° 0.9 mm 1 mps 652 mmHg 65%
    01:00 +28°C° 0.9 mm 1 mps 651 mmHg 67%
    02:00 +28°C° 0.9 mm 1 mps 651 mmHg 69%
    03:00 +27°C° 0.8 mm 1 mps 651 mmHg 70%
    04:00 +27°C° 0.8 mm 1 mps 651 mmHg 71%
    05:00 +26°C° 0.8 mm 1 mps 651 mmHg 73%
    06:00 +28°C° 0.3 mm 1 mps 651 mmHg 67%
    07:00 +29°C° 0.3 mm 1 mps 652 mmHg 61%
    08:00 +30°C° 0.3 mm 1 mps 652 mmHg 54%
    09:00 +31°C° 0 mm 2 mps 652 mmHg 50%
    10:00 +34°C° 0 mm 2 mps 652 mmHg 45%
    11:00 +35°C° 0 mm 2 mps 652 mmHg 41%
    12:00 +36°C° 0 mm 3 mps 652 mmHg 39%
    13:00 +36°C° 0 mm 3 mps 652 mmHg 37%
    14:00 +37°C° 0 mm 3 mps 652 mmHg 36%
    15:00 +37°C° 0 mm 4 mps 652 mmHg 36%
    16:00 +37°C° 0 mm 4 mps 652 mmHg 35%
    17:00 +37°C° 0 mm 4 mps 652 mmHg 35%
    18:00 +35°C° 0.1 mm 3 mps 652 mmHg 41%
    19:00 +34°C° 0.1 mm 3 mps 652 mmHg 47%
    20:00 +31°C° 0.1 mm 2 mps 652 mmHg 52%
    21:00 +30°C° 0.7 mm 2 mps 652 mmHg 55%
    22:00 +30°C° 0.7 mm 2 mps 652 mmHg 58%
    23:00 +29°C° 0.7 mm 1 mps 652 mmHg 61%

    22 July, Sunday

    Time Temperature Precipitation Wind Pressure Humidity
    00:00 +29°C° 1.2 mm 1 mps 652 mmHg 64%
    01:00 +28°C° 1.2 mm 1 mps 651 mmHg 67%
    02:00 +27°C° 1.2 mm 1 mps 651 mmHg 70%
    03:00 +27°C° 0.4 mm 1 mps 651 mmHg 71%
    04:00 +27°C° 0.4 mm 1 mps 651 mmHg 71%
    05:00 +26°C° 0.4 mm 1 mps 650 mmHg 72%
    06:00 +27°C° 0.3 mm 1 mps 651 mmHg 67%
    07:00 +29°C° 0.3 mm 1 mps 651 mmHg 62%
    08:00 +30°C° 0.3 mm 1 mps 651 mmHg 57%
    09:00 +31°C° 0 mm 2 mps 651 mmHg 53%
    10:00 +32°C° 0 mm 2 mps 651 mmHg 49%
    11:00 +34°C° 0 mm 2 mps 651 mmHg 45%
    12:00 +35°C° 0 mm 3 mps 651 mmHg 42%
    13:00 +36°C° 0 mm 3 mps 651 mmHg 39%
    14:00 +37°C° 0 mm 3 mps 650 mmHg 36%
    15:00 +37°C° 0 mm 3 mps 650 mmHg 35%
    16:00 +37°C° 0 mm 3 mps 650 mmHg 34%
    17:00 +37°C° 0 mm 4 mps 650 mmHg 33%
    18:00 +36°C° 0 mm 3 mps 650 mmHg 38%
    19:00 +34°C° 0 mm 2 mps 650 mmHg 43%
    20:00 +31°C° 0 mm 2 mps 650 mmHg 48%
    21:00 +31°C° 0.1 mm 2 mps 651 mmHg 51%
    22:00 +30°C° 0.1 mm 1 mps 651 mmHg 54%
    23:00 +30°C° 0.1 mm 1 mps 651 mmHg 57%
    Show more